Terminal Aerodrome Forecast
Issued by NWS Hastings, NE

Home | Current Version | Previous Version | Text Only | Print | Product List | Glossary On
Versions: 1 2 3 4 5 6 7 8 9 10 11 12 13 14 15 16 17 18 19 20 21 22 23 24 25 26 27 28 29 30 31 32 33 34 35 36 37 38 39 40 41 42 43 44 45 46 47 48 49 50
000
FTUS43 KGID 060157 AAA
TAFGRI
TAF AMD
KGRI 060157Z 0602/0624 15011KT P6SM SCT035 BKN080
     FM060400 15011KT 5SM -SHRA OVC025
     FM060800 15011KT 2SM -SHRA OVC004
     FM061500 14014KT 4SM BR OVC010
     FM062000 15020G29KT P6SM OVC020=

USA.gov is the U.S. government's official web portal to all federal, state and local government web resources and services.